Notices

What's New in latest Release from April 7th, 2021:

- Updated Glossary, including Speed of Maximum Gust, and Total Hourly Precipitation

- Updated national and regional climate services offices contacts and prices information

- Addition of station inventory lists for 1981-2010, 1971-2000, and 1961-1990 Normals.

If you haven't already, please take our survey and provide feedback about our website: https://eccc.sondage-survey.ca/f/LanguageSelection.aspx?s=442ca660-fcf1-47c0-95a9-59707d6fd709

Hourly Data Report for April 04, 2018

CLYDE RIVER A
NUNAVUT
Current Station Operator: NAVCAN

70°29'09.000" N
68°31'01.000" W
26.50 m
2400804
71090
YCY

Download Data

Hourly Data (April 2018)
Hourly Data Report for April 4, 2018
TIME
LST
Temp Definition
°C
Dew Point Definition
°C
Rel Hum Definition
%
Precip. Amount Definition
mm

Wind Dir Definition
10's deg

Wind Spd Definition
km/h
Visibility Definition
km
Stn Press Definition
kPa
Hmdx Definition


Wind Chill Definition


Weather Definition


00:00 -16.8 -19.9 77 0.0 31 35 16.1 101.94   -29 LegendNANA
01:00 -16.3 -20.1 73 0.0 30 26 16.1 101.94   -27 LegendNANA
02:00 -17.0 -20.6 74 0.0 32 21 16.1 101.91   -27 LegendNANA
03:00 -15.4 -19.2 73 0.0 30 35 16.1 101.87   -27 LegendNANA
04:00 -16.6 -20.2 74 0.0 29 18 16.1 101.88   -26 LegendNANA
05:00 -14.8 -18.9 71 0.0 31 28 16.1 101.87   -25 LegendNANA
06:00 -14.0 -18.0 72 0.0 29 28 16.1 101.89   -24 LegendNANA
07:00 -13.4 -18.0 69 0.0 30 30 16.1 101.88   -24 LegendNANA
08:00 -12.1 -16.8 68 0.0 31 35 16.1 101.84   -23 LegendNANA
09:00 -13.0 -16.4 76 0.0 32 52 2.8 101.80   -26 Blowing Snow
10:00 -12.6 -15.9 76 0.0 32 54 1.2 101.77   -26 Snow,Blowing Snow
11:00 -12.6 -15.7 78 0.0 32 55 1.6 101.77   -26 Snow,Blowing Snow
12:00 -12.5 -15.6 78 0.0 32 50 1.2 101.77   -25 Snow,Blowing Snow
13:00 -12.2 -15.8 75 0.0 31 37 16.1 101.86   -23 LegendNANA
14:00 -12.0 -15.9 73 0.0 32 43 9.7 101.82   -24 Snow
15:00 -12.2 -16.1 73 0.0 31 39 16.1 101.82   -24 LegendNANA
16:00 -12.3 -16.7 70 0.0 31 35 16.1 101.84   -23 LegendNANA
17:00 -12.9 -17.6 68 0.0 30 30 16.1 101.82   -23 LegendNANA
18:00 -14.9 -18.9 72 0.0 31 21 16.1 101.86   -24 LegendNANA
19:00 -15.5 -19.3 73 0.0 31 32 16.1 101.86   -27 LegendNANA
20:00 -16.8 -20.3 75 0.0 32 28 16.1 101.86   -28 LegendNANA
21:00 -18.5 -21.8 76 0.0 32 24 16.1 101.84   -29 LegendNANA
22:00 -18.7 -21.5 79 0.0 32 22 16.1 101.87   -29 LegendNANA
23:00 -19.0 -21.9 78 0.0 33 34 16.1 101.81   -32 LegendNANA

Notes on Data Quality.

Legend

  • E = Estimated
  • M = Missing
  • NA = Not Available*
  • [empty] = Indicates an unobserved value
Date modified: